Regional Weather Roundup
Issued by NWS Charleston, WV

Home | Current Version | Previous Version | Graphics & Text | Print | Product List | Glossary On
Versions: 1 2 3 4 5 6 7 8 9 10 11 12 13 14 15 16 17 18 19 20 21 22 23 24 25 26 27 28 29 30 31 32 33 34 35 36 37 38 39 40 41 42 43 44 45 46 47 48 49 50
000
ASUS41 KRLX 230310
RWRRLX
West Virginia Regional Weather Roundup
National Weather Service Charleston WV
1100 PM EDT MON SEP 22 2014

Note: "fair" indicates few or no clouds below 12,000 feet with no
significant weather and/or obstructions to visibility.

WVZ003-230400-
Northern Panhandle of West Virginia

CITY           SKY/WX    TMP DP  RH WIND       PRES   REMARKS
WHEELING       CLEAR     45  41  86 NE5       30.28R
$$

WVZ009-230400-
Northwest West Virginia

CITY           SKY/WX    TMP DP  RH WIND       PRES   REMARKS
PARKERSBURG    CLEAR     47  45  93 CALM      30.30R
$$

WVZ006-230400-
Western West Virginia

CITY           SKY/WX    TMP DP  RH WIND       PRES   REMARKS
HUNTINGTON     CLEAR     52  46  80 CALM      30.25R
$$

WVZ015-230400-
West Central West Virginia

CITY           SKY/WX    TMP DP  RH WIND       PRES   REMARKS
CHARLESTON     CLEAR     50  50 100 NE3       30.26R
$$

WVZ031-230400-
North Central West Virginia

CITY           SKY/WX    TMP DP  RH WIND       PRES   REMARKS
CLARKSBURG     CLEAR     46  45  96 CALM      30.28R
MORGANTOWN     CLEAR     53  44  71 CALM      30.29R
$$

WVZ035-042-045-230400-
South Central West Virginia

CITY           SKY/WX    TMP DP  RH WIND       PRES   REMARKS
BECKLEY        CLEAR     46  42  86 CALM      30.27R
BLUEFIELD      CLEAR     50  44  80 CALM      30.28R
LEWISBURG      CLEAR     46  43  90 CALM      30.27S
$$

WVZ047-230400-
Northern Mountains of West Virginia

CITY           SKY/WX    TMP DP  RH WIND       PRES   REMARKS
ELKINS         CLEAR     40  40 100 CALM      30.29R
$$

WVZ052-230400-
Eastern Panhandle of West Virginia

CITY           SKY/WX    TMP DP  RH WIND       PRES   REMARKS
MARTINSBURG    CLEAR     55  39  54 NW5       30.26R
PETERSBURG     CLEAR     46  42  87 CALM      30.29R
$$


USA.gov is the U.S. government's official web portal to all federal, state and local government web resources and services.